This is the latest recevied weather packets stored in our database for station/object K5GHS-1. If no packets are shown the sender has not sent any weather packets the latest 10 day(s).
| Time | Temp. | Humidity | Pressure | Rain* | Wind** | Luminosity | Snow |
|---|---|---|---|---|---|---|---|
| 1788023064 | 36.11° C | 44% | 1016.5 hPa | 0 mm | - | 683 W/m² | - |
| 1788022761 | 36.67° C | 43% | 1016.4 hPa | 0 mm | - | 708 W/m² | - |
| 1788022460 | 36.11° C | 45% | 1016.5 hPa | 0 mm | - | 723 W/m² | - |
| 1788022155 | 36.11° C | 44% | 1016.3 hPa | 0 mm | - | 681 W/m² | - |
| 1788021849 | 35.56° C | 45% | 1016.5 hPa | 0 mm | - | 663 W/m² | - |
| 1788021548 | 35.56° C | 46% | 1016.6 hPa | 0 mm | - | 659 W/m² | - |
| 1788021247 | 36.11° C | 45% | 1016.5 hPa | 0 mm | - | 689 W/m² | - |
| 1788020942 | 35.56° C | 45% | 1016.5 hPa | 0 mm | - | 711 W/m² | - |
| 1788020642 | 35° C | 44% | 1016.5 hPa | 0 mm | - | 724 W/m² | - |
| 1788020338 | 35.56° C | 45% | 1016.6 hPa | 0 mm | - | 751 W/m² | - |
| 1788020034 | 35.56° C | 46% | 1016.7 hPa | 0 mm | - | 738 W/m² | - |
| 1788019733 | 35° C | 46% | 1016.5 hPa | 0 mm | - | 681 W/m² | - |
| 1788019433 | 35.56° C | 45% | 1016.6 hPa | 0 mm | - | 666 W/m² | - |
| 1788019130 | 35.56° C | 46% | 1016.7 hPa | 0 mm | - | 665 W/m² | - |
| 1788018825 | 35° C | 47% | 1016.8 hPa | 0 mm | - | 626 W/m² | - |
| 1788018521 | 35° C | 47% | 1016.6 hPa | 0 mm | - | 564 W/m² | - |
| 1788018220 | 35° C | 47% | 1016.9 hPa | 0 mm | - | 533 W/m² | - |
| 1788017916 | 34.44° C | 49% | 1016.6 hPa | 0 mm | - | 536 W/m² | - |
| 1788017612 | 35° C | 49% | 1016.7 hPa | 0 mm | - | 546 W/m² | - |
| 1788017308 | 33.89° C | 52% | 1016.8 hPa | 0 mm | - | 519 W/m² | - |
| 1788017005 | 33.89° C | 53% | 1016.9 hPa | 0 mm | - | 511 W/m² | - |
| 1788016704 | 33.89° C | 52% | 1016.8 hPa | 0 mm | - | 447 W/m² | - |
| 1788016402 | 33.33° C | 53% | 1016.7 hPa | 0 mm | - | 439 W/m² | - |
| 1788016102 | 32.78° C | 55% | 1016.7 hPa | 0 mm | - | 415 W/m² | - |
| 1788015801 | 32.22° C | 56% | 1016.6 hPa | 0 mm | - | 381 W/m² | - |
* Rain latest hour (hover to see other rain measurements)
** Current wind speed in m/s (hover to see current wind gust speed)